Weather History for KSHV - September, 2013

Change the Weather History Date:

Wednesday, September 18, 2013

  Actual Average Record
Temperature  
Mean Temperature 86 °F 76 °F  
Max Temperature 97 °F 88 °F 101 °F (2005)
Min Temperature 74 °F 65 °F 50 °F (1981)
Degree Days  
Heating Degree Days 0 0  
Month to date heating degree days 0 0  
Since 1 July heating degree days 0 0  
Cooling Degree Days 21 11  
Month to date cooling degree days 368 252  
Year to date cooling degree days 2413 2214  
Growing Degree Days 35 (Base 50)    
Moisture  
Dew Point 67 °F    
Average Humidity 55    
Maximum Humidity 79    
Minimum Humidity 30    
Precipitation  
Precipitation 0.00 in 0.10 in 1.43 in (1875)
Month to date precipitation 0.06 1.83  
Year to date precipitation 27.02 35.82  
Snow  
Snow 0.00 in - - ()
Month to date snowfall 0.0  
Since 1 July snowfall 0.0  
Since 1 September snowfall 0.0  
Snow Depth 0.00 in    
Sea Level Pressure  
Sea Level Pressure 29.97 in    
Wind  
Wind Speed 8 mph (SE)    
Max Wind Speed 20 mph    
Max Gust Speed 23 mph    
Visibility 10 miles    
Events      
T = Trace of Precipitation, MM = Missing Value Source: NWS Daily Summary

Daily Weather History Graph

Daily Weather History Graph

Search for Another Location

Airport or City:

Trip Planner

Search our weather history database for the weather conditions in past years. The results will help you decide how hot, cold, wet, or windy it might be!

Date:

Astronomy

Sep. 18, 2013 Rise Set
Actual Time 7:01 AM CDT 7:16 PM CDT
Civil Twilight 6:36 AM CDT 7:41 PM CDT
Nautical Twilight 6:07 AM CDT 8:10 PM CDT
Astronomical Twilight 5:38 AM CDT 8:39 PM CDT
Moon 6:41 PM CDT (9/18) 6:05 AM CDT (9/18)
Length of Visible Light 13h 04m
Length of Day
12h 15m
Waxing Gibbous, 99% of the Moon is Illuminated
Sep 18
Waxing Gibbous
Sep 19
Full
Sep 26
Last Quarter
Oct 4
New
Oct 11
First Quarter

Hourly Weather History & Observations

Time (CDT) Temp. Heat Index Dew Point Humidity Pressure Visibility Wind Dir Wind Speed Gust Speed Precip Events Conditions
12:56 AM 81.0 °F 83.8 °F 68.0 °F 65% 29.99 in 10.0 mi Calm Calm - N/A   Overcast
1:56 AM 78.1 °F - 68.0 °F 71% 29.99 in 10.0 mi Calm Calm - N/A   Overcast
2:56 AM 80.1 °F 82.7 °F 68.0 °F 67% 29.98 in 10.0 mi Calm Calm - N/A   Overcast
3:56 AM 79.0 °F - 68.0 °F 69% 29.97 in 10.0 mi SE 6.9 mph - N/A   Overcast
4:56 AM 77.0 °F - 69.1 °F 76% 29.98 in 10.0 mi Calm Calm - N/A   Mostly Cloudy
5:56 AM 75.0 °F - 68.0 °F 79% 29.98 in 10.0 mi ESE 3.5 mph - N/A   Overcast
6:56 AM 75.0 °F - 68.0 °F 79% 29.99 in 10.0 mi SSE 9.2 mph - N/A   Mostly Cloudy
7:56 AM 79.0 °F - 69.1 °F 72% 30.00 in 10.0 mi SSE 6.9 mph - N/A   Mostly Cloudy
8:56 AM 84.0 °F 88.4 °F 70.0 °F 63% 30.02 in 10.0 mi SW 5.8 mph - N/A   Mostly Cloudy
9:56 AM 87.1 °F 91.3 °F 69.1 °F 55% 30.03 in 10.0 mi SW 5.8 mph - N/A   Mostly Cloudy
10:56 AM 90.0 °F 94.5 °F 69.1 °F 50% 30.03 in 10.0 mi South 10.4 mph 17.3 mph N/A   Mostly Cloudy
11:56 AM 90.0 °F 93.6 °F 68.0 °F 48% 30.02 in 10.0 mi SSE 9.2 mph - N/A   Mostly Cloudy
12:56 PM 93.0 °F 96.4 °F 66.9 °F 42% 29.99 in 10.0 mi Variable 6.9 mph - N/A   Mostly Cloudy
1:56 PM 95.0 °F 99.0 °F 66.9 °F 40% 29.97 in 10.0 mi East 9.2 mph - N/A   Mostly Cloudy
2:56 PM 95.0 °F 97.0 °F 64.0 °F 36% 29.94 in 10.0 mi East 10.4 mph - N/A   Mostly Cloudy
3:56 PM 97.0 °F 98.3 °F 63.0 °F 32% 29.92 in 10.0 mi East 9.2 mph 23.0 mph N/A   Mostly Cloudy
4:56 PM 96.1 °F 96.4 °F 61.0 °F 31% 29.91 in 10.0 mi ESE 5.8 mph - N/A   Mostly Cloudy
5:56 PM 95.0 °F 95.6 °F 62.1 °F 33% 29.90 in 10.0 mi SSE 12.7 mph 19.6 mph N/A   Mostly Cloudy
6:56 PM 91.9 °F 92.9 °F 63.0 °F 38% 29.91 in 10.0 mi ESE 5.8 mph - N/A   Mostly Cloudy
7:56 PM 89.1 °F 90.3 °F 64.0 °F 43% 29.91 in 10.0 mi SE 5.8 mph - N/A   Mostly Cloudy
8:56 PM 89.1 °F 91.0 °F 64.9 °F 45% 29.93 in 10.0 mi ESE 9.2 mph - N/A   Mostly Cloudy
9:56 PM 86.0 °F 88.8 °F 66.9 °F 53% 29.94 in 10.0 mi SE 9.2 mph - N/A   Mostly Cloudy
10:56 PM 84.0 °F 86.5 °F 66.9 °F 56% 29.95 in 10.0 mi SE 5.8 mph - N/A   Mostly Cloudy
11:56 PM 82.9 °F 85.4 °F 66.9 °F 58% 29.95 in 10.0 mi SSE 17.3 mph 21.9 mph N/A   Mostly Cloudy